Location: Lafig�re
(44.4503°N, 4.0357°E)
Time: 14:18:05
(UTC+00:00)

Vanguard 1 Rocket - All Passes

Search period start: 23 January 2021 00:00
Search period end: 02 February 2021 00:00
Orbit: 655 x 4221 km, 34.3° (Epoch: 23 January)

Date Brightness Start Highest point End Pass type
(mag) Time Alt. Az. Time Alt. Az. Time Alt. Az.
23 Jan - 11:15:07 10° SSW 11:18:35 17° SSE 11:21:33 10° SE daylight
23 Jan - 13:39:03 10° SW 13:42:40 24° S 13:46:35 10° SE daylight
23 Jan - 16:03:44 10° SW 16:06:59 17° SSW 16:11:03 10° SSE daylight
24 Jan - 10:04:47 10° SSW 10:07:48 14° SSE 10:10:21 10° SE daylight
24 Jan - 12:28:18 10° SW 12:32:09 23° S 12:35:43 10° ESE daylight
24 Jan - 14:52:56 10° WSW 14:56:14 20° S 15:00:11 10° SE daylight
25 Jan - 08:55:55 10° SSE 08:56:47 10° SSE 08:57:37 10° SSE daylight
25 Jan - 11:17:19 10° SW 11:21:34 21° S 11:25:04 10° ESE daylight
25 Jan - 13:42:07 10° WSW 13:45:40 23° S 13:49:23 10° SE daylight
25 Jan - 16:08:03 10° SW 16:09:59 12° SSW 16:12:10 10° S daylight
26 Jan - 10:06:11 10° SSW 10:10:50 19° SSE 10:14:23 10° ESE daylight
26 Jan - 12:31:07 10° WSW 12:35:09 25° S 12:38:47 10° SE daylight
26 Jan - 14:56:29 10° SW 14:59:13 16° SSW 15:02:19 10° SSE daylight
27 Jan - 08:55:10 10° SSW 08:59:50 16° SSE 09:03:25 10° SE daylight
27 Jan - 11:19:46 10° SW 11:24:35 25° S 11:28:21 10° ESE daylight
27 Jan - 13:45:19 10° WSW 13:48:39 20° SSW 13:52:03 10° SE daylight
28 Jan - 07:45:02 10° S 07:48:32 12° SSE 07:51:28 10° SE daylight
28 Jan - 10:08:06 10° SW 10:13:52 24° S 10:17:57 10° ESE daylight
28 Jan - 12:34:01 10° WSW 12:38:09 25° S 12:41:46 10° SE daylight
28 Jan - 15:00:41 10° SW 15:02:11 11° SSW 15:03:45 10° S daylight
29 Jan - 08:56:18 10° SSW 09:02:53 21° SSE 09:07:25 10° ESE daylight
29 Jan - 11:22:21 10° WSW 11:27:36 28° S 11:31:33 10° ESE daylight
29 Jan - 13:48:40 10° WSW 13:51:35 17° SSW 13:54:30 10° SSE daylight
30 Jan - 07:44:44 10° SSW 07:51:34 18° SSE 07:56:26 10° ESE daylight
30 Jan - 10:10:18 10° SW 10:16:53 29° S 10:21:19 10° ESE daylight
30 Jan - 12:37:00 10° WSW 12:41:06 23° SSW 12:44:38 10° SE daylight
31 Jan - 06:34:06 10° S 06:39:56 14° SSE 06:44:27 10° SE visible
31 Jan - 08:57:57 10° SW 09:05:55 27° S 09:11:00 10° ESE daylight
31 Jan - 11:25:04 10° WSW 11:30:35 29° S 11:34:38 10° SE daylight
31 Jan - 13:52:21 10° SW 13:54:28 13° SSW 13:56:33 10° S daylight
01 Feb - 07:45:34 10° SSW 07:54:36 24° SSE 08:00:25 10° ESE daylight
01 Feb - 10:12:40 10° WSW 10:19:53 32° S 10:24:34 10° ESE daylight
01 Feb - 12:40:05 10° WSW 12:44:01 21° SSW 12:47:22 10° SSE daylight
